Location: Unspecified
(35.7250°N, 0.0000°E)
Time: 03:56:54
(UTC+00:00)

Explorer 7 - Pass Details

Date: 26 June 2019
Orbit: 485 x 680 km, 50.3° (Epoch: 18 July)

Event Time Altitude Azimuth Distance (km) Brightness Sun altitude
Rises 14:02:53 0° 305° (NW) 2,963 10.8 61.3°
Reaches altitude 10° 14:05:14 10° 301° (WNW) 2,072 10.2 60.8°
Maximum altitude 14:09:55 55° 225° (SW) 807 9.6 59.9°
Drops below altitude 10° 14:14:42 10° 147° (SSE) 2,107 9.8 59.0°
Sets 14:17:06 0° 143° (SE) 3,018 10.5 58.5°
